Location: Berua Church
(35.0423°N, 88.5987°W)
Time: 05:16:16
(UTC+00:00)

AQUARIUS - Pass Details

Date: 08 December 2019
Orbit: 650 x 653 km, 98.0° (Epoch: 21 January)

Event Time Altitude Azimuth Distance (km) Brightness Sun altitude
Rises 12:08:16 0° 13° (NNE) 2,978 7.5 -8.6°
Reaches altitude 10° 12:10:30 10° 15° (NNE) 2,062 6.7 -8.1°
Maximum altitude 12:15:00 79° 101° (ESE) 667 4.4 -7.3°
Drops below altitude 10° 12:19:28 10° 189° (S) 2,047 6.9 -6.5°
Sets 12:21:40 0° 191° (S) 2,953 7.7 -6.0°
